Latest Weather Observations for Sydney - Observatory Hill

IDN60901

Issued at 10:41 am EDT Monday 27 February 2017 (issued every 10 minutes, with the page automatically refreshed every 10 minutes)

About weather observations | Map of Sydney area stations | Latest observations for Sydney area | Other Formats
Station Details ID: 066062 Name: SYDNEY (OBSERVATORY HILL) Lat: -33.86 Lon: 151.21 Height: 39.0 m
Data from the previous 72 hours. | See also: Recent months at Sydney - Observatory Hill

* Apparent temperature (App Temp) for Sydney - Observatory Hill is calculated using temperature observations collected at Sydney - Observatory Hill and wind observations collected at Fort Denison, as wind observations are not currently provided for Sydney - Observatory Hill.

Date/Time
EDT
Temp
°C
App
Temp
°C
Dew
Point
°C
Rel
Hum
%
Delta-T
°C
Wind Press
QNH
hPa
Press
MSL
hPa
Rain since
9am
mm
Dir  Spd
km/h
Gust
km/h
Spd
kts
Gust
kts
27/10:30am 24.0 22.1 15.8 60 4.9 SE 20 - 11 - 1024.6 1024.4 0.0
27/10:00am 23.1 21.8 15.7 63 4.4 SE 17 - 9 - 1024.6 1024.4 0.0
27/09:30am 22.6 20.4 15.0 62 4.5 SE 20 - 11 - 1024.5 1024.3 0.0
27/09:00am 23.3 21.4 15.1 60 4.9 SE 19 - 10 - 1024.2 1024.0 26.4
27/08:30am 23.3 21.9 16.6 66 4.1 ESE 19 - 10 - 1023.9 1023.7 26.4
27/08:00am 22.3 21.3 16.6 70 3.5 SE 17 - 9 - 1023.5 1023.3 26.4
27/07:30am 21.2 19.8 16.6 75 2.8 ESE 19 - 10 - 1023.2 1023.0 26.4
27/07:00am 20.7 19.4 16.7 78 2.4 SE 19 - 10 - 1022.8 1022.6 26.4
27/06:30am 20.8 19.4 16.6 77 2.5 ESE 19 - 10 - 1022.6 1022.4 26.4
27/06:00am 20.7 19.1 16.5 77 2.5 ESE 20 - 11 - 1022.4 1022.2 26.4
27/05:30am 20.8 18.8 16.4 76 2.7 ESE 22 - 12 - 1022.2 1022.0 26.2
27/05:00am 20.7 18.5 16.9 79 2.3 ESE 24 - 13 - 1021.8 1021.6 26.2
27/04:30am 19.6 16.8 17.2 86 1.5 ESE 28 - 15 - 1021.7 1021.5 26.2
27/04:00am 19.1 17.1 17.4 90 1.0 ESE 24 - 13 - 1021.9 1021.7 26.2
27/03:30am 19.0 17.7 17.3 90 1.0 ESE 20 - 11 - 1022.0 1021.8 26.2
27/03:00am 18.9 17.6 17.2 90 1.0 ESE 20 - 11 - 1022.1 1021.9 26.2
27/02:30am 18.7 18.2 16.9 89 1.1 W 15 - 8 - 1022.3 1022.1 26.2
27/02:00am 19.0 18.6 17.1 89 1.1 NW 15 - 8 - 1022.5 1022.3 26.2
27/01:30am 18.8 19.8 16.9 89 1.1 SW 7 - 4 - 1022.6 1022.4 25.8
27/01:00am 18.9 17.6 16.9 88 1.2 SSW 19 - 10 - 1022.7 1022.5 12.8
27/12:30am 18.8 17.4 16.6 87 1.3 SSW 19 - 10 - 1022.6 1022.4 6.0
27/12:00am 19.1 19.0 16.9 87 1.3 SSW 13 - 7 - 1022.5 1022.3 6.0
 
Date/Time
EDT
Temp
°C
App
Temp
°C
Dew
Point
°C
Rel
Hum
%
Delta-T
°C
Wind Press
QNH
hPa
Press
MSL
hPa
Rain since
9am
mm
Dir  Spd
km/h
Gust
km/h
Spd
kts
Gust
kts
26/11:30pm 19.5 19.1 17.1 86 1.5 SSW 15 - 8 - 1023.2 1023.0 6.0
26/11:00pm 19.6 18.1 16.3 81 2.0 SSW 19 - 10 - 1023.1 1022.9 3.4
26/10:30pm 20.4 18.4 15.4 73 3.0 SSW 20 - 11 - 1023.2 1023.0 0.2
26/10:00pm 21.1 19.3 15.4 70 3.4 S 19 - 10 - 1023.2 1023.0 0.2
26/09:30pm 20.8 19.4 15.6 72 3.1 S 17 - 9 - 1022.9 1022.7 0.2
26/09:00pm 20.9 17.9 15.9 73 3.0 SSE 26 - 14 - 1022.8 1022.6 0.2
26/08:30pm 22.1 18.8 12.9 56 5.3 SSE 22 - 12 - 1022.5 1022.3 0.2
26/08:00pm 22.1 19.1 12.6 55 5.4 S 20 - 11 - 1022.2 1022.0 0.2
26/07:30pm 22.3 19.3 12.5 53 5.6 S 20 - 11 - 1022.0 1021.8 0.2
26/07:00pm 22.7 19.7 12.6 53 5.7 SSE 20 - 11 - 1021.8 1021.6 0.2
26/06:30pm 22.4 19.1 12.9 55 5.4 S 22 - 12 - 1021.7 1021.5 0.2
26/06:00pm 22.8 19.1 12.7 53 5.8 S 24 - 13 - 1021.4 1021.2 0.2
26/05:30pm 24.3 20.0 13.2 50 6.5 SSE 28 - 15 - 1021.4 1021.2 0.2
26/05:00pm 23.5 18.6 12.5 50 6.3 SSE 30 - 16 - 1021.3 1021.1 0.2
26/04:30pm 24.8 19.3 12.4 46 7.1 SSE 33 - 18 - 1021.3 1021.1 0.2
26/04:00pm 24.6 20.5 13.8 51 6.3 SSE 28 - 15 - 1021.3 1021.1 0.2
26/03:30pm 25.0 22.4 14.8 53 6.1 S 22 - 12 - 1021.3 1021.1 0.2
26/03:00pm 24.3 21.2 14.4 54 5.9 SSW 24 - 13 - 1022.0 1021.8 0.2
26/02:30pm 24.4 21.6 14.2 53 6.0 S 22 - 12 - 1022.1 1021.9 0.2
26/02:00pm 24.3 21.2 14.4 54 5.9 S 24 - 13 - 1022.2 1022.0 0.2
26/01:30pm 24.1 20.9 13.0 50 6.4 SE 22 - 12 - 1022.5 1022.3 0.2
26/01:00pm 23.4 20.0 13.6 54 5.7 SSE 24 - 13 - 1022.8 1022.6 0.2
26/12:30pm 23.4 20.0 13.8 54 5.6 SSE 24 - 13 - 1022.9 1022.7 0.2
26/12:00pm 23.3 20.0 14.0 56 5.4 SSE 24 - 13 - 1023.1 1022.9 0.2
26/11:30am 23.3 19.7 14.3 57 5.3 SSE 26 - 14 - 1023.1 1022.9 0.2
26/11:00am 22.6 20.3 14.2 59 4.9 S 19 - 10 - 1023.0 1022.8 0.2
26/10:30am 22.1 19.6 14.0 60 4.7 SSE 20 - 11 - 1023.1 1022.9 0.2
26/10:00am 21.8 19.5 14.2 62 4.4 SSE 19 - 10 - 1022.8 1022.6 0.2
26/09:30am 21.8 19.5 14.7 64 4.2 SSE 20 - 11 - 1022.4 1022.2 0.0
26/09:00am 20.7 19.3 14.4 67 3.7 SSE 15 - 8 - 1022.0 1021.8 28.6
26/08:30am 19.9 18.6 14.7 72 3.0 SSE 15 - 8 - 1021.8 1021.6 28.6
26/08:00am 19.7 18.9 15.1 75 2.7 SSE 13 - 7 - 1021.5 1021.3 28.6
26/07:30am 19.0 17.2 15.5 80 2.1 SSE 19 - 10 - 1021.2 1021.0 28.6
26/07:00am 18.6 18.1 16.0 85 1.5 SSE 13 - 7 - 1021.0 1020.8 28.6
26/06:30am 18.7 19.3 15.9 84 1.7 S 7 - 4 - 1021.0 1020.8 28.6
26/06:00am 18.6 19.8 15.8 84 1.7 SW 4 - 2 - 1020.6 1020.4 28.6
26/05:30am 18.7 17.7 15.6 82 1.8 SE 15 - 8 - 1020.2 1020.0 28.4
26/05:00am 18.8 17.5 15.9 83 1.7 SE 17 - 9 - 1020.0 1019.8 27.6
26/04:30am 19.1 17.7 16.5 85 1.6 SE 19 - 10 - 1019.8 1019.6 27.4
26/04:00am 19.2 17.6 16.6 85 1.6 SE 20 - 11 - 1019.6 1019.5 26.8
26/03:30am 18.8 17.3 16.4 86 1.4 SE 19 - 10 - 1019.6 1019.5 26.2
26/03:00am 19.0 17.4 16.6 86 1.4 SE 20 - 11 - 1019.6 1019.5 26.0
26/02:30am 19.3 15.9 16.7 85 1.6 ESE 30 - 16 - 1019.5 1019.4 22.4
26/02:00am 19.0 16.8 17.0 88 1.2 ESE 24 - 13 - 1019.8 1019.6 21.4
26/01:30am 19.2 16.7 17.2 88 1.2 ESE 26 - 14 - 1020.3 1020.1 19.4
26/01:00am 19.3 19.3 17.1 87 1.3 WNW 13 - 7 - 1020.5 1020.3 17.0
26/12:30am 19.2 19.0 16.6 85 1.6 W 13 - 7 - 1020.5 1020.3 10.4
26/12:00am 19.1 18.7 16.3 84 1.7 W 13 - 7 - 1020.3 1020.1 9.8
 
Date/Time
EDT
Temp
°C
App
Temp
°C
Dew
Point
°C
Rel
Hum
%
Delta-T
°C
Wind Press
QNH
hPa
Press
MSL
hPa
Rain since
9am
mm
Dir  Spd
km/h
Gust
km/h
Spd
kts
Gust
kts
25/11:30pm 19.2 19.3 16.4 84 1.7 WNW 11 - 6 - 1020.5 1020.3 9.8
25/11:00pm 19.2 19.6 16.2 83 1.8 WNW 9 - 5 - 1020.7 1020.5 9.8
25/10:30pm 19.2 19.0 16.6 85 1.6 SSW 13 - 7 - 1020.7 1020.5 9.8
25/10:00pm 19.2 19.4 16.8 86 1.4 SW 11 - 6 - 1020.7 1020.5 9.8
25/09:30pm 19.1 20.2 16.7 86 1.4 SW 6 - 3 - 1020.5 1020.3 9.8
25/09:00pm 19.1 20.0 16.7 86 1.4 WSW 7 - 4 - 1020.5 1020.3 9.8
25/08:30pm 19.2 19.4 16.8 86 1.5 SW 11 - 6 - 1020.6 1020.4 9.8
25/08:00pm 19.3 18.4 16.9 86 1.4 SSW 17 - 9 - 1020.3 1020.1 9.8
25/07:30pm 19.2 18.7 16.8 86 1.5 SSW 15 - 8 - 1020.2 1020.0 9.6
25/07:00pm 19.0 17.4 16.6 86 1.4 SSW 20 - 11 - 1019.8 1019.6 9.6
25/06:30pm 18.7 17.0 16.3 86 1.4 SSW 20 - 11 - 1019.6 1019.5 9.6
25/06:00pm 18.7 17.6 16.3 86 1.4 SSW 17 - 9 - 1019.8 1019.6 9.6
25/05:30pm 18.9 17.3 16.5 86 1.4 SSW 20 - 11 - 1020.0 1019.8 9.2
25/05:00pm 19.0 17.1 16.6 86 1.4 SSW 22 - 12 - 1020.0 1019.8 9.2
25/04:30pm 19.1 17.6 16.7 86 1.4 SSW 20 - 11 - 1020.1 1019.9 9.0
25/04:00pm 19.2 18.6 16.6 85 1.6 S 15 - 8 - 1020.1 1019.9 8.2
25/03:30pm 19.4 17.2 17.0 86 1.5 SSW 24 - 13 - 1020.2 1020.0 8.0
25/03:00pm 19.0 17.7 16.8 87 1.3 SSW 19 - 10 - 1020.3 1020.1 8.0
25/02:30pm 18.7 17.2 16.7 88 1.2 SSW 20 - 11 - 1020.7 1020.5 7.8
25/02:00pm 18.6 17.0 16.6 88 1.2 SSW 20 - 11 - 1020.9 1020.7 7.4
25/01:30pm 18.7 17.2 16.7 88 1.2 SSW 20 - 11 - 1021.1 1020.9 6.6
25/01:00pm 18.7 17.3 16.9 89 1.1 SSW 20 - 11 - 1020.9 1020.7 5.8
25/12:30pm 18.9 17.5 17.0 89 1.2 SSW 20 - 11 - 1021.0 1020.8 5.2
25/12:00pm 18.7 17.3 16.9 89 1.1 SSW 20 - 11 - 1021.3 1021.1 4.4
25/11:30am 18.4 17.0 16.6 89 1.1 SSW 19 - 10 - 1021.5 1021.3 2.8
25/11:00am 18.6 17.3 16.8 89 1.1 SSW 19 - 10 - 1021.5 1021.3 2.0
25/10:30am 18.5 16.6 16.7 89 1.1 SSW 22 - 12 - 1021.4 1021.2 1.4
25/10:00am 18.5 16.6 16.7 89 1.1 SSW 22 - 12 - 1021.1 1020.9 0.8
25/09:30am 18.7 16.9 16.9 89 1.1 SSW 22 - 12 - 1020.8 1020.6 0.4
25/09:00am 18.7 17.4 16.9 89 1.1 S 19 - 10 - 1020.7 1020.5 7.8
25/08:30am 18.8 17.4 16.9 89 1.1 S 20 - 11 - 1020.5 1020.3 7.6
25/08:00am 19.1 17.0 17.2 89 1.2 S 24 - 13 - 1020.3 1020.1 7.2
25/07:30am 19.4 18.2 17.5 89 1.2 S 20 - 11 - 1019.8 1019.6 7.2
25/07:00am 19.1 17.4 17.2 89 1.2 S 22 - 12 - 1019.6 1019.5 6.8
25/06:30am 19.0 16.5 17.1 89 1.2 SSW 26 - 14 - 1019.2 1019.1 6.6
25/06:00am 18.9 16.7 16.9 88 1.2 S 24 - 13 - 1019.0 1018.9 6.4
25/05:30am 19.1 16.6 17.1 88 1.2 SSW 26 - 14 - 1019.0 1018.9 6.2
25/05:00am 19.1 17.9 17.1 88 1.2 SSW 19 - 10 - 1018.7 1018.6 6.0
25/04:30am 19.5 19.5 17.3 87 1.3 SSE 13 - 7 - 1019.1 1019.0 5.4
25/04:00am 19.7 17.3 17.3 86 1.5 SSW 26 - 14 - 1018.9 1018.8 3.0
25/03:30am 20.1 17.5 16.9 82 1.9 SSW 26 - 14 - 1018.7 1018.6 1.8
25/03:00am 20.2 18.0 17.0 82 1.9 SSW 24 - 13 - 1018.8 1018.7 1.8
25/02:30am 20.6 18.7 17.6 83 1.8 SSW 24 - 13 - 1019.0 1018.9 1.8
25/02:00am 20.8 19.6 17.6 82 2.0 SSW 20 - 11 - 1019.4 1019.3 1.8
25/01:30am 20.8 21.0 17.6 82 2.0 SSW 13 - 7 - 1019.3 1019.2 1.8
25/01:00am 20.9 20.0 18.1 84 1.7 SSW 20 - 11 - 1020.2 1020.0 1.8
25/12:30am 21.0 21.0 18.0 83 1.9 SSW 15 - 8 - 1019.9 1019.7 1.8
25/12:00am 21.5 22.1 18.5 83 1.9 SE 13 - 7 - 1020.0 1019.8 1.6
 
Date/Time
EDT
Temp
°C
App
Temp
°C
Dew
Point
°C
Rel
Hum
%
Delta-T
°C
Wind Press
QNH
hPa
Press
MSL
hPa
Rain since
9am
mm
Dir  Spd
km/h
Gust
km/h
Spd
kts
Gust
kts
24/11:30pm 22.0 23.3 19.2 84 1.8 SSW 11 - 6 - 1019.9 1019.7 1.4
24/11:00pm 22.1 21.6 18.7 81 2.1 SSW 19 - 10 - 1020.4 1020.2 0.0
24/10:30pm 22.3 22.1 18.5 79 2.4 S 17 - 9 - 1020.6 1020.4 0.0
24/10:00pm 22.3 21.1 18.3 78 2.5 SSW 22 - 12 - 1020.3 1020.1 0.0
24/09:30pm 22.6 22.7 18.4 77 2.6 S 15 - 8 - 1020.1 1019.9 0.0
24/09:00pm 22.9 23.5 18.7 77 2.6 S 13 - 7 - 1019.6 1019.5 0.0
24/08:30pm 22.9 22.4 18.7 77 2.7 S 19 - 10 - 1019.0 1018.9 0.0
24/08:00pm 23.1 22.9 18.6 76 2.8 S 17 - 9 - 1019.0 1018.9 0.0
24/07:30pm 23.5 23.1 19.0 76 2.9 S 19 - 10 - 1018.6 1018.5 0.0
24/07:00pm 24.0 25.1 18.9 73 3.2 SSW 11 - 6 - 1018.5 1018.4 0.0
24/06:30pm 24.9 25.6 18.8 69 3.9 SSE 13 - 7 - 1018.2 1018.1 0.0
24/06:00pm 25.8 26.0 18.5 64 4.6 SE 15 - 8 - 1018.0 1017.9 0.0
24/05:30pm 25.8 25.8 18.0 62 4.9 ESE 15 - 8 - 1017.9 1017.8 0.0
24/05:00pm 26.0 26.3 17.9 61 5.1 E 13 - 7 - 1017.9 1017.8 0.0
24/04:30pm 25.9 27.6 18.1 62 4.9 E 6 - 3 - 1018.4 1018.3 0.0
24/04:00pm 25.8 27.3 17.7 61 5.1 ENE 6 - 3 - 1018.3 1018.2 0.0
24/03:30pm 26.3 27.2 17.6 58 5.5 E 9 - 5 - 1018.5 1018.4 0.0
24/03:00pm 27.3 27.2 17.8 56 6.0 ESE 15 - 8 - 1018.7 1018.6 0.0
24/02:30pm 26.7 27.0 17.8 58 5.6 ESE 13 - 7 - 1018.7 1018.6 0.0
24/02:00pm 27.1 27.4 17.8 56 5.9 E 13 - 7 - 1019.4 1019.3 0.0
24/01:30pm 26.9 27.2 17.1 55 6.1 ESE 11 - 6 - 1019.6 1019.5 0.0
24/01:00pm 26.4 26.5 17.5 58 5.6 E 13 - 7 - 1020.2 1020.0 0.0
24/12:30pm 26.1 27.7 18.2 61 5.0 E 7 - 4 - 1020.6 1020.4 0.0
24/12:00pm 26.0 27.8 18.4 63 4.8 S 6 - 3 - 1020.9 1020.7 0.0
24/11:30am 25.4 26.0 17.8 62 4.8 SSE 11 - 6 - 1021.1 1020.9 0.0
24/11:00am 24.6 25.4 18.1 67 4.1 SSE 11 - 6 - 1021.3 1021.1 0.0

Latest Capital City Observations: Canberra | Sydney | Melbourne | Brisbane | Adelaide | Perth | Hobart | Darwin

Other Formats:

Comma delimited format used in spreadsheet applications
http://www.bom.gov.au/fwo/IDN60901/IDN60901.94768.axf

JavaScript Object Notation format (JSON) in row-major order
http://www.bom.gov.au/fwo/IDN60901/IDN60901.94768.json